Regional Weather Roundup
Issued by NWS

Home | Current Version | Previous Version | Graphics & Text | Print | Product List | Glossary Off
Versions: 1 2 3 4 5 6 7 8 9 10 11 12 13 14 15 16 17 18 19 20 21 22 23 24 25 26 27 28 29 30 31 32 33 34 35 36 37 38 39 40 41 42 43 44 45 46 47 48 49 50

000
ASUS43 KMKX 300500
RWRWI

WISCONSIN REGIONAL WEATHER ROUNDUP
NATIONAL WEATHER SERVICE MILWAUKEE/SULLIVAN WI
1200 AM CDT WED JUL 30 2014

NOTE: "FAIR" INDICATES FEW OR NO CLOUDS BELOW 12,000 FEET WITH NO
SIGNIFICANT WEATHER AND/OR OBSTRUCTIONS TO VISIBILITY.

WIZ001-002-006>008-014>016-023>028-300600-
NORTHWEST WISCONSIN

CITY           SKY/WX    TMP DP  RH WIND       PRES   REMARKS
SUPERIOR ARPT  PTCLDY    57  56  98 CALM      30.04S
ASHLAND        PTCLDY    52  51  97 CALM      30.05R FOG
HAYWARD        PTCLDY    58  57  97 CALM      30.05R
SIREN          CLOUDY    60  59  95 CALM      30.06S
RICE LAKE      MOCLDY    59  57  92 CALM      30.06F
LADYSMITH      MOCLDY    60  57  91 W7        30.05S
EAU CLAIRE     NOT AVBL
MENOMONIE      MOCLDY    60  58  92 NW5       30.07R
NEW RICHMOND   PTCLDY    63  55  75 NE7G18    30.09R
OSCEOLA        LGT RAIN  63  57  81 E5        30.10R
$$

WIZ003>005-009-010-017-018-300600-
NORTH CENTRAL WISCONSIN

CITY           SKY/WX    TMP DP  RH WIND       PRES   REMARKS
WOODRUFF       CLEAR     55  51  89 CALM      30.04R
RHINELANDER    CLEAR     55  54  96 CALM      30.04R
EAGLE RIVER    MOCLDY    55  53  94 CALM      30.03S
LAND O LAKES   CLEAR     51  50  96 CALM      30.05S
PHILLIPS       FOG       53  53 100 CALM      30.03S VSB 3/4
TOMAHAWK         N/A     52  51  96 CALM      30.04R FOG
MEDFORD        CLOUDY    54  54  98 CALM      30.03S
MERRILL        PTCLDY    54  54  98 CALM      30.02S
$$

WIZ029-030-035-036-043>047-300600-
CENTRAL WISCONSIN

CITY           SKY/WX    TMP DP  RH WIND       PRES   REMARKS
WAUSAU         CLOUDY    58  55  90 NW6       30.01S
MOSINEE        PTCLDY    57  54  88 NW8       30.03S
MARSHFIELD     MOCLDY    57  55  93 W6        30.02S
STEVENS POINT  PTCLDY    59  53  81 W3        30.02S
WAUPACA        PTCLDY    61  57  85 CALM      30.01S
WAUTOMA        NOT AVBL
WISC RAPIDS    MOCLDY    60  56  86 CALM      30.04S
CAMP DOUGLAS   NOT AVBL
$$

WIZ011>013-019>022-031-037>040-048>050-300600-
NORTHEAST WISCONSIN

CITY           SKY/WX    TMP DP  RH WIND       PRES   REMARKS
ANTIGO         MOCLDY    54  53  97 NW3       30.03R
STURGEON BAY   CLOUDY    59  55  88 N7        29.99S
GREEN BAY      MOCLDY    60  59  96 W5        29.98S
MANITOWOC      NOT AVBL
APPLETON       CLEAR     55  55 100 W9        30.00S
CLINTONVILLE   PTCLDY    59  55  88 NW3       29.99S
OSHKOSH        PTCLDY    59  57  93 W5        30.00S
$$

WIZ032>034-041-042-053>061-300600-
SOUTHWEST WISCONSIN

CITY           SKY/WX    TMP DP  RH WIND       PRES   REMARKS
LA CROSSE      MOCLDY    64  59  83 N3        30.05F
SPARTA         MOCLDY    58  58  97 SW3       30.05F
VIROQUA        CLOUDY    60  60 100 W6        30.07S
BOSCOBEL       MOCLDY    63  60  90 CALM      30.06S
PRAIRIE DU CHI MOCLDY    63  57  80 S3        30.06S
PLATTEVILLE    MOCLDY    62  60  91 S6        30.05F
$$

WIZ056-057-062-063-064-067-068-300600-
SOUTH CENTRAL WISCONSIN

CITY           SKY/WX    TMP DP  RH WIND       PRES   REMARKS
BARABOO/DELLS  MOCLDY    57  55  91 SW3       30.04R
LONE ROCK      NOT AVBL
WATERTOWN      PTCLDY    56  56  99 CALM      30.02S
MADISON        PTCLDY    60  56  86 CALM      30.03S
MIDDLETON      FAIR      60  58  95 W3        30.04F
MONROE         CLOUDY    61  57  88 NW7       30.05S
JANESVILLE     PTCLDY    61  55  82 SW3       30.03S
$$

WIZ051-052-058>065-066-070>072-300600-
SOUTHEAST WISCONSIN

CITY           SKY/WX    TMP DP  RH WIND       PRES   REMARKS
MILWAUKEE      MOCLDY    61  57  87 W7        30.00S
WAUKESHA       CLEAR     54  54 100 CALM      30.02S
MILWAUKEE/TIMM CLEAR     57  54  88 CALM      30.01S
RACINE         PTCLDY    59  57  93 W8        30.01F
BURLINGTON     PTCLDY    54  54  99 CALM      30.01F
KENOSHA        CLEAR     56  55  97 W5        30.00F
FOND DU LAC    PTCLDY    58  55  90 SW6       30.01F
SHEBOYGAN      PTCLDY    57  55  93 W5        29.99S
WEST BEND      PTCLDY    55  54  94 W3        30.01S
JUNEAU           N/A     56  54  94 CALM      30.04R FOG
$$

LSZ147-162-300600-
LAKE SUPERIOR

STATION/POSITION TIME  TEMP    WIND        PRES    WAVE
                       AIR SEA DIR/SP/G            HT/PER
                 (UTC) (F)     (DEG/KT/KT) (MB)    (FT/S)
W MID LAKE BUOY  0350   45 44   10/  8/  8 1017.2R   0
PORT WING        0440   57     150/  1/  3 1017.6R
SAXON HARBOR     0440           60/  8/ 10 1017.3S
$$

LMZ867-665-643>646-300600-
LAKE MICHIGAN

STATION/POSITION TIME  TEMP    WIND        PRES    WAVE
                       AIR SEA DIR/SP/G            HT/PER
                 (UTC) (F)     (DEG/KT/KT) (MB)    (FT/S)
N MID LAKE BUOY  0350   57 54  340/  4/  6 1014.9R   0
NORTHPORT PIER   0400   63      10/  4/  5 1015.6R
SISTER BAY       0310   63     120/  2/  7   N/A
ALGOMA LAKESHORE 0321          340/  6/  7   N/A
KEWAUNEE LAKESHO 0400   61     280/  2/  3 1015.6F
SHEBOYGAN LAKESH 0400   63     270/ 13/ 15 1015.2S
PORT WASHINGTON  0440   61     280/  6/  9 1016.3R
ATWATER BUOY     0400   62     240/  2     1016.8S
MILWAUKEE LAKESH 0400   62     270/  2/  3   N/A
S MID LAKE BUOY  0350   61 61  270/ 12/ 16 1015.8F   1
KENOSHA   LAKESH 0400   62     240/  7/  9 1015.9F
$$

TC  - TEMPERATURE IN CELSIUS
VSB - VISIBILITY IN STATUTE MILES
WCI - WIND CHILL INDEX
HX  - HEAT INDEX




USA.gov is the U.S. government's official web portal to all federal, state and local government web resources and services.